| time (UTC) | temp C | wind direction | speed KPH | gust KPH | rain 1hr cm | rain 24hr cm | rain mn cm | humidity % | barometer mb |
| 20260906232510 | 30 | 42 | 8.0 | 19.3 | 0.00 | 0.00 | 0.00 | 26 | 1017.0 |
| 20260906232010 | 30 | 307 | 8.0 | 19.3 | 0.00 | 0.00 | 0.00 | 24 | 1017.0 |
| 20260906231510 | 30 | 340 | 3.2 | 12.9 | 0.00 | 0.00 | 0.00 | 27 | 1017.1 |
| 20260906231010 | 30 | 333 | 6.4 | 16.1 | 0.00 | 0.00 | 0.00 | 26 | 1017.2 |
| 20260906230511 | 29 | 352 | 4.8 | 16.1 | 0.00 | 0.00 | 0.00 | 26 | 1017.1 |
| 20260906230006 | 29 | 259 | 8.0 | 14.5 | 0.00 | 0.00 | 0.00 | 27 | 1017.1 |
| 20260906225501 | 30 | 319 | 6.4 | 16.1 | 0.00 | 0.00 | 0.00 | 27 | 1017.0 |
| 20260906225001 | 29 | 29 | 6.4 | 17.7 | 0.00 | 0.00 | 0.00 | 27 | 1017.0 |
| 20260906224501 | 29 | 292 | 6.4 | 17.7 | 0.00 | 0.00 | 0.00 | 27 | 1017.1 |
| 20260906224001 | 29 | 273 | 9.7 | 16.1 | 0.00 | 0.00 | 0.00 | 27 | 1017.1 |
| 20260906223733 | 29 | 299 | 8.0 | 22.5 | 0.00 | 0.00 | 0.00 | 27 | 1017.1 |
| 20260906222957 | 29 | 300 | 12.9 | 27.4 | 0.00 | 0.00 | 0.00 | 26 | 1017.1 |
| 20260906222451 | 30 | 316 | 9.7 | 27.4 | 0.00 | 0.00 | 0.00 | 26 | 1017.0 |
| 20260906221947 | 30 | 22 | 9.7 | 22.5 | 0.00 | 0.00 | 0.00 | 26 | 1017.0 |
| 20260906221447 | 30 | 316 | 14.5 | 22.5 | 0.00 | 0.00 | 0.00 | 25 | 1017.0 |
| 20260906220947 | 30 | 294 | 11.3 | 22.5 | 0.00 | 0.00 | 0.00 | 25 | 1016.9 |
| 20260906220448 | 31 | 316 | 12.9 | 22.5 | 0.00 | 0.00 | 0.00 | 24 | 1016.9 |
| 20260906215947 | 31 | 302 | 9.7 | 16.1 | 0.00 | 0.00 | 0.00 | 24 | 1016.9 |
| 20260906215447 | 31 | 305 | 8.0 | 19.3 | 0.00 | 0.00 | 0.00 | 23 | 1016.9 |
| 20260906214942 | 31 | 330 | 12.9 | 19.3 | 0.00 | 0.00 | 0.00 | 23 | 1016.9 |
| 20260906214442 | 31 | 250 | 6.4 | 19.3 | 0.00 | 0.00 | 0.00 | 23 | 1016.9 |
| 20260906213943 | 31 | 333 | 9.7 | 14.5 | 0.00 | 0.00 | 0.00 | 23 | 1017.0 |
| 20260906213443 | 32 | 3 | 8.0 | 12.9 | 0.00 | 0.00 | 0.00 | 22 | 1017.0 |
| 20260906212943 | 32 | 306 | 8.0 | 16.1 | 0.00 | 0.00 | 0.00 | 21 | 1017.0 |
| 20260906212444 | 31 | 1 | 11.3 | 17.7 | 0.00 | 0.00 | 0.00 | 22 | 1017.1 |
| 20260906211939 | 31 | 59 | 8.0 | 17.7 | 0.00 | 0.00 | 0.00 | 22 | 1017.1 |
| 20260906211433 | 31 | 286 | 6.4 | 14.5 | 0.00 | 0.00 | 0.00 | 22 | 1017.2 |
| 20260906210934 | 31 | 334 | 9.7 | 16.1 | 0.00 | 0.00 | 0.00 | 22 | 1017.2 |
| 20260906210655 | 31 | 349 | 9.7 | 16.1 | 0.00 | 0.00 | 0.00 | 21 | 1017.2 |
| 20260906205934 | 31 | 280 | 8.0 | 14.5 | 0.00 | 0.00 | 0.00 | 21 | 1017.2 |
| 20260906205434 | 31 | 291 | 8.0 | 16.1 | 0.00 | 0.00 | 0.00 | 20 | 1017.4 |
| 20260906204934 | 31 | 285 | 9.7 | 16.1 | 0.00 | 0.00 | 0.00 | 22 | 1017.4 |
| 20260906204430 | 31 | 297 | 8.0 | 16.1 | 0.00 | 0.00 | 0.00 | 21 | 1017.4 |
| 20260906204407 | 31 | 314 | 8.0 | 14.5 | 0.00 | 0.00 | 0.00 | 22 | 1017.5 |
| 20260906203425 | 31 | 53 | 8.0 | 17.7 | 0.00 | 0.00 | 0.00 | 24 | 1017.5 |
| 20260906202925 | 31 | 314 | 9.7 | 17.7 | 0.00 | 0.00 | 0.00 | 22 | 1017.6 |
| 20260906202426 | 31 | 275 | 6.4 | 11.3 | 0.00 | 0.00 | 0.00 | 24 | 1017.7 |
| 20260906201926 | 31 | 340 | 8.0 | 14.5 | 0.00 | 0.00 | 0.00 | 22 | 1017.7 |
| 20260906201421 | 31 | 328 | 6.4 | 16.1 | 0.00 | 0.00 | 0.00 | 22 | 1017.8 |
| 20260906200921 | 31 | 35 | 9.7 | 16.1 | 0.00 | 0.00 | 0.00 | 23 | 1017.9 |
| 20260906200421 | 31 | 337 | 9.7 | 17.7 | 0.00 | 0.00 | 0.00 | 22 | 1017.9 |
| 20260906195922 | 30 | 264 | 11.3 | 17.7 | 0.00 | 0.00 | 0.00 | 22 | 1017.9 |
| 20260906195421 | 30 | 292 | 6.4 | 12.9 | 0.00 | 0.00 | 0.00 | 22 | 1018.0 |
| 20260906194921 | 30 | 312 | 9.7 | 14.5 | 0.00 | 0.00 | 0.00 | 20 | 1018.2 |
| 20260906194417 | 31 | 304 | 8.0 | 14.5 | 0.00 | 0.00 | 0.00 | 20 | 1018.3 |
| 20260906193911 | 31 | 297 | 3.2 | 12.9 | 0.00 | 0.00 | 0.00 | 21 | 1018.2 |
| 20260906193412 | 31 | 288 | 6.4 | 12.9 | 0.00 | 0.00 | 0.00 | 21 | 1018.3 |
| 20260906192912 | 31 | 330 | 4.8 | 8.0 | 0.00 | 0.00 | 0.00 | 20 | 1018.3 |
| 20260906192632 | 30 | 293 | 3.2 | 14.5 | 0.00 | 0.00 | 0.00 | 20 | 1018.4 |
| 20260906192134 | 30 | 309 | 8.0 | 14.5 | 0.00 | 0.00 | 0.00 | 19 | 1018.6 |
| 20260906191413 | 31 | 330 | 6.4 | 14.5 | 0.00 | 0.00 | 0.00 | 20 | 1018.6 |
| 20260906190912 | 31 | 258 | 8.0 | 14.5 | 0.00 | 0.00 | 0.00 | 20 | 1018.7 |
| 20260906190636 | 30 | 313 | 6.4 | 12.9 | 0.00 | 0.00 | 0.00 | 20 | 1018.7 |
| 20260906185903 | 30 | 285 | 4.8 | 12.9 | 0.00 | 0.00 | 0.00 | 21 | 1018.9 |
| 20260906185404 | 30 | 318 | 4.8 | 9.7 | 0.00 | 0.00 | 0.00 | 22 | 1019.0 |
| 20260906184903 | 31 | 326 | 3.2 | 6.4 | 0.00 | 0.00 | 0.00 | 21 | 1019.1 |
| 20260906184626 | 31 | 48 | 3.2 | 6.4 | 0.00 | 0.00 | 0.00 | 22 | 1019.1 |
| 20260906184125 | 30 | 41 | 1.6 | 6.4 | 0.00 | 0.00 | 0.00 | 25 | 1019.2 |
| 20260906183359 | 30 | 283 | 0.0 | 6.4 | 0.00 | 0.00 | 0.00 | 25 | 1019.4 |
| 20260906182854 | 30 | 278 | 3.2 | 6.4 | 0.00 | 0.00 | 0.00 | 24 | 1019.4 |
| 20260906182338 | 30 | 313 | 1.6 | 8.0 | 0.00 | 0.00 | 0.00 | 24 | 1019.4 |
| 20260906182059 | 30 | 2 | 1.6 | 8.0 | 0.00 | 0.00 | 0.00 | 22 | 1019.5 |
| 20260906181339 | 30 | 291 | 3.2 | 6.4 | 0.00 | 0.00 | 0.00 | 22 | 1019.8 |
| 20260906180840 | 30 | 335 | 3.2 | 6.4 | 0.00 | 0.00 | 0.00 | 23 | 1019.8 |
| 20260906180339 | 31 | 32 | 3.2 | 6.4 | 0.00 | 0.00 | 0.00 | 24 | 1019.8 |
| 20260906175834 | 31 | 321 | 1.6 | 6.4 | 0.00 | 0.00 | 0.00 | 21 | 1019.9 |
| 20260906175555 | 31 | 66 | 1.6 | 4.8 | 0.00 | 0.00 | 0.00 | 21 | 1020.0 |
| 20260906175056 | 31 | 237 | 1.6 | 6.4 | 0.00 | 0.00 | 0.00 | 23 | 1020.1 |
| 20260906174335 | 30 | 70 | 0.0 | 8.0 | 0.00 | 0.00 | 0.00 | 24 | 1020.2 |
| 20260906173835 | 29 | 58 | 3.2 | 12.9 | 0.00 | 0.00 | 0.00 | 25 | 1020.3 |
| 20260906173335 | 29 | 58 | 3.2 | 12.9 | 0.00 | 0.00 | 0.00 | 25 | 1020.2 |
| 20260906172831 | 28 | 155 | 3.2 | 11.3 | 0.00 | 0.00 | 0.00 | 27 | 1020.3 |
| 20260906172331 | 28 | 105 | 4.8 | 11.3 | 0.00 | 0.00 | 0.00 | 27 | 1020.5 |
| 20260906172058 | 28 | 79 | 3.2 | 9.7 | 0.00 | 0.00 | 0.00 | 31 | 1020.5 |
| 20260906171344 | 27 | 121 | 4.8 | 9.7 | 0.00 | 0.00 | 0.00 | 28 | 1020.6 |
| 20260906170832 | 28 | 96 | 4.8 | 8.0 | 0.00 | 0.00 | 0.00 | 28 | 1020.7 |
| 20260906170332 | 27 | 87 | 1.6 | 8.0 | 0.00 | 0.00 | 0.00 | 27 | 1020.7 |
| 20260906165827 | 27 | 133 | 3.2 | 14.5 | 0.00 | 0.00 | 0.00 | 27 | 1020.8 |
| 20260906165326 | 27 | 111 | 6.4 | 14.5 | 0.00 | 0.00 | 0.00 | 26 | 1020.8 |
| 20260906164827 | 26 | 145 | 6.4 | 9.7 | 0.00 | 0.00 | 0.00 | 29 | 1020.8 |
| 20260906164327 | 26 | 106 | 4.8 | 11.3 | 0.00 | 0.00 | 0.00 | 29 | 1021.0 |
| 20260906163828 | 26 | 126 | 6.4 | 12.9 | 0.00 | 0.00 | 0.00 | 29 | 1020.9 |
| 20260906163327 | 26 | 122 | 4.8 | 12.9 | 0.00 | 0.00 | 0.00 | 29 | 1020.9 |
| 20260906163050 | 26 | 64 | 3.2 | 9.7 | 0.00 | 0.00 | 0.00 | 30 | 1021.0 |
| 20260906162322 | 26 | 66 | 4.8 | 8.0 | 0.00 | 0.00 | 0.00 | 30 | 1021.0 |
| 20260906162005 | 26 | 97 | 3.2 | 8.0 | 0.00 | 0.00 | 0.00 | 32 | 1021.0 |
| 20260906160813 | 25 | 90 | 4.8 | 9.7 | 0.00 | 0.00 | 0.00 | 32 | 1021.1 |
| 20260906160531 | 25 | 110 | 4.8 | 12.9 | 0.00 | 0.00 | 0.00 | 31 | 1021.1 |
| 20260906155813 | 25 | 114 | 3.2 | 12.9 | 0.00 | 0.00 | 0.00 | 31 | 1021.0 |
| 20260906155313 | 25 | 72 | 1.6 | 8.0 | 0.00 | 0.00 | 0.00 | 32 | 1021.0 |
| 20260906154821 | 25 | 100 | 4.8 | 9.7 | 0.00 | 0.00 | 0.00 | 31 | 1021.0 |
| 20260906154303 | 25 | 52 | 3.2 | 11.3 | 0.00 | 0.00 | 0.00 | 33 | 1021.1 |
| 20260906153804 | 24 | 33 | 4.8 | 12.9 | 0.00 | 0.00 | 0.00 | 32 | 1021.1 |
| 20260906153304 | 24 | 124 | 6.4 | 12.9 | 0.00 | 0.00 | 0.00 | 32 | 1021.1 |
| 20260906152804 | 24 | 120 | 6.4 | 9.7 | 0.00 | 0.00 | 0.00 | 32 | 1021.1 |
| 20260906152307 | 23 | 35 | 1.6 | 12.9 | 0.00 | 0.00 | 0.00 | 33 | 1021.1 |
| 20260906151817 | 23 | 71 | 6.4 | 12.9 | 0.00 | 0.00 | 0.00 | 35 | 1021.3 |
| 20260906151300 | 22 | 93 | 1.6 | 6.4 | 0.00 | 0.00 | 0.00 | 38 | 1021.3 |
| 20260906151017 | 21 | 58 | 3.2 | 9.7 | 0.00 | 0.00 | 0.00 | 39 | 1021.4 |
| 20260906150300 | 21 | 70 | 3.2 | 17.7 | 0.00 | 0.00 | 0.00 | 39 | 1021.4 |
| 20260906145800 | 22 | 111 | 6.4 | 17.7 | 0.00 | 0.00 | 0.00 | 39 | 1021.4 |
| 20260906145300 | 22 | 144 | 4.8 | 11.3 | 0.00 | 0.00 | 0.00 | 39 | 1021.4 |
| 20260906144800 | 22 | 117 | 4.8 | 9.7 | 0.00 | 0.00 | 0.00 | 38 | 1021.4 |
| 20260906144744 | 22 | 60 | 3.2 | 12.9 | 0.00 | 0.00 | 0.00 | 39 | 1021.4 |
| 20260906143756 | 22 | 96 | 4.8 | 12.9 | 0.00 | 0.00 | 0.00 | 38 | 1021.4 |
| 20260906143255 | 22 | 93 | 3.2 | 12.9 | 0.00 | 0.00 | 0.00 | 39 | 1021.5 |
| 20260906142756 | 21 | 129 | 6.4 | 12.9 | 0.00 | 0.00 | 0.00 | 38 | 1021.4 |
| 20260906142256 | 21 | 105 | 3.2 | 12.9 | 0.00 | 0.00 | 0.00 | 37 | 1021.5 |
| 20260906141810 | 21 | 108 | 6.4 | 11.3 | 0.00 | 0.00 | 0.00 | 38 | 1021.5 |
| 20260906141256 | 20 | 91 | 6.4 | 11.3 | 0.00 | 0.00 | 0.00 | 39 | 1021.5 |
| 20260906140756 | 20 | 121 | 3.2 | 11.3 | 0.00 | 0.00 | 0.00 | 42 | 1021.5 |
| 20260906140252 | 19 | 110 | 1.6 | 8.0 | 0.00 | 0.00 | 0.00 | 44 | 1021.4 |
| 20260906135747 | 18 | 110 | 1.6 | 6.4 | 0.00 | 0.00 | 0.00 | 45 | 1021.4 |
| 20260906135246 | 18 | 142 | 3.2 | 8.0 | 0.00 | 0.00 | 0.00 | 45 | 1021.3 |
| 20260906134747 | 18 | 91 | 3.2 | 12.9 | 0.00 | 0.00 | 0.00 | 45 | 1021.1 |
| 20260906134506 | 18 | 112 | 3.2 | 12.9 | 0.00 | 0.00 | 0.00 | 45 | 1021.0 |
| 20260906134232 | 18 | 100 | 3.2 | 9.7 | 0.00 | 0.00 | 0.00 | 46 | 1020.9 |
| 20260906133242 | 18 | 103 | 1.6 | 8.0 | 0.00 | 0.00 | 0.00 | 46 | 1021.0 |
| 20260906132742 | 18 | 100 | 3.2 | 6.4 | 0.00 | 0.00 | 0.00 | 45 | 1021.0 |
| 20260906132238 | 18 | 126 | 0.0 | 6.4 | 0.00 | 0.00 | 0.00 | 45 | 1021.0 |
| 20260906131957 | 18 | 117 | 0.0 | 6.4 | 0.00 | 0.00 | 0.00 | 45 | 1020.9 |
| 20260906131232 | 17 | 150 | 1.6 | 6.4 | 0.00 | 0.00 | 0.00 | 46 | 1020.8 |
| 20260906130733 | 17 | 114 | 1.6 | 3.2 | 0.00 | 0.00 | 0.00 | 48 | 1020.8 |
| 20260906130505 | 17 | 112 | 1.6 | 3.2 | 0.00 | 0.00 | 0.00 | 46 | 1020.7 |
| 20260906125733 | 17 | 115 | 1.6 | 4.8 | 0.00 | 0.00 | 0.00 | 46 | 1020.7 |
| 20260906125229 | 17 | 106 | 1.6 | 4.8 | 0.00 | 0.00 | 0.00 | 46 | 1020.7 |
| 20260906124723 | 17 | 103 | 0.0 | 6.4 | 0.00 | 0.00 | 0.00 | 46 | 1020.8 |
| 20260906124224 | 17 | 161 | 1.6 | 6.4 | 0.00 | 0.00 | 0.00 | 48 | 1020.7 |
| 20260906123724 | 17 | 115 | 1.6 | 4.8 | 0.00 | 0.00 | 0.00 | 49 | 1020.7 |
| 20260906123224 | 17 | 119 | 1.6 | 3.2 | 0.00 | 0.00 | 0.00 | 49 | 1020.6 |
| 20260906122725 | 17 | 86 | 0.0 | 1.6 | 0.00 | 0.00 | 0.00 | 50 | 1020.5 |
| 20260906122219 | 17 | 86 | 0.0 | 1.6 | 0.00 | 0.00 | 0.00 | 48 | 1020.6 |
| 20260906121715 | 17 | 85 | 0.0 | 1.6 | 0.00 | 0.00 | 0.00 | 48 | 1020.6 |
| 20260906121204 | 17 | 77 | 0.0 | 1.6 | 0.00 | 0.00 | 0.00 | 48 | 1020.5 |
| 20260906120705 | 17 | 98 | 0.0 | 1.6 | 0.00 | 0.00 | 0.00 | 46 | 1020.6 |
| 20260906120425 | 18 | 98 | 0.0 | 4.8 | 0.00 | 0.00 | 0.00 | 45 | 1020.7 |
| 20260906115925 | 18 | 98 | 0.0 | 4.8 | 0.00 | 0.00 | 0.00 | 45 | 1020.5 |
| 20260906115205 | 18 | 70 | 0.0 | 6.4 | 0.00 | 0.00 | 0.00 | 45 | 1020.5 |
| 20260906114701 | 17 | 98 | 1.6 | 6.4 | 0.00 | 0.00 | 0.00 | 46 | 1020.3 |
| 20260906114155 | 17 | 74 | 1.6 | 4.8 | 0.00 | 0.00 | 0.00 | 49 | 1020.1 |
| 20260906114138 | 17 | 60 | 1.6 | 3.2 | 0.00 | 0.00 | 0.00 | 50 | 1020.2 |
| 20260906113417 | 16 | 53 | 1.6 | 3.2 | 0.00 | 0.00 | 0.00 | 51 | 1020.2 |
| 20260906112931 | 16 | 65 | 0.0 | 1.6 | 0.00 | 0.00 | 0.00 | 53 | 1020.2 |
| 20260906112146 | 17 | 103 | 0.0 | 1.6 | 0.00 | 0.00 | 0.00 | 50 | 1020.5 |
| 20260906111641 | 17 | 103 | 0.0 | 1.6 | 0.00 | 0.00 | 0.00 | 49 | 1020.5 |
| 20260906111141 | 17 | 65 | 0.0 | 1.6 | 0.00 | 0.00 | 0.00 | 49 | 1020.2 |
| 20260906110641 | 17 | 65 | 0.0 | 3.2 | 0.00 | 0.00 | 0.00 | 48 | 1020.1 |
| 20260906110328 | 17 | 65 | 1.6 | 3.2 | 0.00 | 0.00 | 0.00 | 48 | 1020.1 |
| 20260906105145 | 17 | 115 | 0.0 | 6.4 | 0.00 | 0.00 | 0.00 | 48 | 1020.1 |
| 20260906104632 | 17 | 115 | 0.0 | 6.4 | 0.00 | 0.00 | 0.00 | 48 | 1020.0 |
| 20260906104132 | 17 | 62 | 1.6 | 4.8 | 0.00 | 0.00 | 0.00 | 49 | 1019.9 |
| 20260906103633 | 17 | 63 | 0.0 | 4.8 | 0.00 | 0.00 | 0.00 | 49 | 1019.9 |
| 20260906103127 | 17 | 61 | 1.6 | 4.8 | 0.00 | 0.00 | 0.00 | 50 | 1019.9 |
| 20260906102628 | 16 | 69 | 3.2 | 3.2 | 0.00 | 0.00 | 0.00 | 52 | 1019.8 |
| 20260906102122 | 16 | 62 | 0.0 | 3.2 | 0.00 | 0.00 | 0.00 | 54 | 1019.8 |
| 20260906101622 | 16 | 63 | 0.0 | 1.6 | 0.00 | 0.00 | 0.00 | 56 | 1019.9 |
| 20260906101118 | 15 | 63 | 0.0 | 1.6 | 0.00 | 0.00 | 0.00 | 57 | 1019.9 |
| 20260906100618 | 15 | 63 | 0.0 | 1.6 | 0.00 | 0.00 | 0.00 | 58 | 1019.9 |
| 20260906100119 | 16 | 63 | 0.0 | 1.6 | 0.00 | 0.00 | 0.00 | 55 | 1020.0 |
| 20260906095618 | 16 | 63 | 0.0 | 1.6 | 0.00 | 0.00 | 0.00 | 54 | 1019.9 |
| 20260906095119 | 16 | 63 | 0.0 | 1.6 | 0.00 | 0.00 | 0.00 | 53 | 1019.9 |
| 20260906094614 | 16 | 63 | 0.0 | 1.6 | 0.00 | 0.00 | 0.00 | 53 | 1019.8 |
| 20260906094109 | 16 | 63 | 0.0 | 4.8 | 0.00 | 0.00 | 0.00 | 52 | 1019.8 |
| 20260906093609 | 16 | 62 | 0.0 | 4.8 | 0.00 | 0.00 | 0.00 | 53 | 1019.7 |
| 20260906093332 | 16 | 51 | 0.0 | 1.6 | 0.00 | 0.00 | 0.00 | 55 | 1019.7 |
| 20260906092559 | 15 | 87 | 0.0 | 0.0 | 0.00 | 0.00 | 0.00 | 55 | 1019.5 |
| 20260906092054 | 15 | 87 | 0.0 | 1.6 | 0.00 | 0.00 | 0.00 | 56 | 1019.7 |
| 20260906091555 | 15 | 87 | 0.0 | 1.6 | 0.00 | 0.00 | 0.00 | 55 | 1019.8 |
| 20260906091050 | 15 | 86 | 0.0 | 0.0 | 0.00 | 0.00 | 0.00 | 56 | 1019.7 |
| 20260906090539 | 16 | 86 | 0.0 | 0.0 | 0.00 | 0.00 | 0.00 | 56 | 1019.9 |
| 20260906090040 | 16 | 86 | 0.0 | 0.0 | 0.00 | 0.00 | 0.00 | 54 | 1019.9 |
| 20260906085540 | 16 | 86 | 0.0 | 1.6 | 0.00 | 0.00 | 0.00 | 54 | 1019.8 |
| 20260906085040 | 16 | 86 | 0.0 | 1.6 | 0.00 | 0.00 | 0.00 | 53 | 1019.8 |
| 20260906084804 | 16 | 86 | 0.0 | 1.6 | 0.00 | 0.00 | 0.00 | 55 | 1019.8 |
| 20260906084040 | 16 | 86 | 0.0 | 1.6 | 0.00 | 0.00 | 0.00 | 56 | 1019.8 |
| 20260906083541 | 16 | 87 | 0.0 | 1.6 | 0.00 | 0.00 | 0.00 | 53 | 1019.8 |
| 20260906083036 | 16 | 87 | 0.0 | 1.6 | 0.00 | 0.00 | 0.00 | 54 | 1019.7 |
| 20260906082807 | 16 | 58 | 0.0 | 1.6 | 0.00 | 0.00 | 0.00 | 55 | 1019.7 |
| 20260906082208 | 15 | 57 | 0.0 | 1.6 | 0.00 | 0.00 | 0.00 | 58 | 1019.8 |
| 20260906081011 | 16 | 57 | 0.0 | 0.0 | 0.00 | 0.00 | 0.00 | 57 | 1019.9 |
| 20260906080512 | 16 | 57 | 0.0 | 0.0 | 0.00 | 0.00 | 0.00 | 55 | 1019.9 |
| 20260906080007 | 16 | 57 | 0.0 | 0.0 | 0.00 | 0.00 | 0.00 | 54 | 1019.8 |
| 20260906075722 | 16 | 57 | 0.0 | 0.0 | 0.00 | 0.00 | 0.00 | 53 | 1019.8 |
| 20260906074952 | 16 | 57 | 0.0 | 1.6 | 0.00 | 0.00 | 0.00 | 54 | 1019.7 |
| 20260906074441 | 16 | 57 | 0.0 | 1.6 | 0.00 | 0.00 | 0.00 | 54 | 1019.7 |
| 20260906074156 | 16 | 57 | 0.0 | 1.6 | 0.00 | 0.00 | 0.00 | 55 | 1019.7 |
| 20260906073437 | 16 | 57 | 0.0 | 0.0 | 0.00 | 0.00 | 0.00 | 55 | 1019.8 |
| 20260906072937 | 16 | 57 | 0.0 | 0.0 | 0.00 | 0.00 | 0.00 | 56 | 1019.7 |
| 20260906072437 | 16 | 58 | 0.0 | 0.0 | 0.00 | 0.00 | 0.00 | 57 | 1019.7 |
| 20260906071927 | 16 | 58 | 0.0 | 0.0 | 0.00 | 0.00 | 0.00 | 57 | 1019.7 |
| 20260906071417 | 16 | 58 | 0.0 | 0.0 | 0.00 | 0.00 | 0.00 | 57 | 1019.7 |
| 20260906070912 | 16 | 58 | 0.0 | 0.0 | 0.00 | 0.00 | 0.00 | 57 | 1019.7 |
| 20260906070352 | 16 | 58 | 0.0 | 0.0 | 0.00 | 0.00 | 0.00 | 55 | 1019.8 |
| 20260906065842 | 16 | 58 | 0.0 | 0.0 | 0.00 | 0.00 | 0.00 | 53 | 1019.9 |
| 20260906065342 | 17 | 58 | 0.0 | 0.0 | 0.00 | 0.00 | 0.00 | 52 | 1019.8 |
| 20260906064842 | 17 | 58 | 0.0 | 0.0 | 0.00 | 0.00 | 0.00 | 52 | 1019.8 |
| 20260906064337 | 17 | 58 | 0.0 | 0.0 | 0.00 | 0.00 | 0.00 | 51 | 1019.8 |
| 20260906063838 | 18 | 58 | 0.0 | 0.0 | 0.00 | 0.00 | 0.00 | 49 | 1019.8 |
| 20260906063338 | 18 | 58 | 0.0 | 1.6 | 0.00 | 0.00 | 0.00 | 48 | 1019.9 |
| 20260906062838 | 18 | 58 | 0.0 | 1.6 | 0.00 | 0.00 | 0.00 | 46 | 1019.8 |
| 20260906062338 | 18 | 58 | 0.0 | 1.6 | 0.00 | 0.00 | 0.00 | 48 | 1019.8 |
| 20260906061839 | 18 | 58 | 0.0 | 1.6 | 0.00 | 0.00 | 0.00 | 48 | 1019.7 |
| 20260906061334 | 18 | 58 | 0.0 | 1.6 | 0.00 | 0.00 | 0.00 | 50 | 1019.8 |
| 20260906060834 | 18 | 58 | 0.0 | 1.6 | 0.00 | 0.00 | 0.00 | 50 | 1019.7 |
| 20260906060341 | 18 | 58 | 0.0 | 3.2 | 0.00 | 0.00 | 0.00 | 49 | 1019.7 |
| 20260906055818 | 18 | 58 | 0.0 | 3.2 | 0.00 | 0.00 | 0.00 | 49 | 1019.7 |
| 20260906055539 | 18 | 60 | 1.6 | 3.2 | 0.00 | 0.00 | 0.00 | 51 | 1019.7 |
| 20260906054814 | 18 | 47 | 0.0 | 1.6 | 0.00 | 0.00 | 0.00 | 52 | 1019.7 |
| 20260906054314 | 18 | 15 | 0.0 | 1.6 | 0.00 | 0.00 | 0.00 | 51 | 1019.7 |
| 20260906054031 | 18 | 13 | 0.0 | 1.6 | 0.00 | 0.00 | 0.00 | 50 | 1019.7 |
| 20260906053310 | 18 | 13 | 1.6 | 3.2 | 0.00 | 0.00 | 0.00 | 53 | 1019.7 |
| 20260906052804 | 18 | 94 | 0.0 | 3.2 | 0.00 | 0.00 | 0.00 | 54 | 1019.7 |
| 20260906052318 | 18 | 177 | 0.0 | 0.0 | 0.00 | 0.00 | 0.00 | 56 | 1019.7 |
| 20260906051800 | 18 | 177 | 0.0 | 0.0 | 0.00 | 0.00 | 0.00 | 55 | 1019.7 |
| 20260906051300 | 18 | 177 | 0.0 | 0.0 | 0.00 | 0.00 | 0.00 | 54 | 1019.7 |
| 20260906051019 | 18 | 177 | 0.0 | 0.0 | 0.00 | 0.00 | 0.00 | 54 | 1019.7 |
| 20260906050240 | 18 | 177 | 0.0 | 0.0 | 0.00 | 0.00 | 0.00 | 52 | 1019.7 |
| 20260906045741 | 18 | 177 | 0.0 | 0.0 | 0.00 | 0.00 | 0.00 | 52 | 1019.7 |
| 20260906045235 | 18 | 177 | 0.0 | 0.0 | 0.00 | 0.00 | 0.00 | 51 | 1019.5 |
| 20260906044730 | 19 | 177 | 0.0 | 0.0 | 0.00 | 0.00 | 0.00 | 51 | 1019.7 |
| 20260906044230 | 19 | 177 | 0.0 | 1.6 | 0.00 | 0.00 | 0.00 | 51 | 1019.5 |
| 20260906043725 | 20 | 177 | 0.0 | 1.6 | 0.00 | 0.00 | 0.00 | 50 | 1019.4 |
| 20260906043216 | 19 | 254 | 0.0 | 0.0 | 0.00 | 0.00 | 0.00 | 48 | 1019.4 |
| 20260906043149 | 19 | 257 | 0.0 | 0.0 | 0.00 | 0.00 | 0.00 | 45 | 1019.3 |
| 20260906042201 | 19 | 257 | 0.0 | 0.0 | 0.00 | 0.00 | 0.00 | 49 | 1019.3 |
| 20260906041926 | 19 | 257 | 0.0 | 0.0 | 0.00 | 0.00 | 0.00 | 49 | 1019.3 |
| 20260906041201 | 20 | 257 | 0.0 | 0.0 | 0.00 | 0.00 | 0.00 | 50 | 1019.1 |
| 20260906040935 | 20 | 257 | 0.0 | 0.0 | 0.00 | 0.00 | 0.00 | 49 | 1019.1 |
| 20260906040431 | 20 | 257 | 0.0 | 0.0 | 0.00 | 0.00 | 0.00 | 46 | 1019.1 |
| 20260906035919 | 21 | 257 | 0.0 | 0.0 | 0.00 | 0.00 | 0.00 | 44 | 1019.1 |
| 20260906035148 | 21 | 257 | 0.0 | 0.0 | 0.00 | 0.00 | 0.00 | 42 | 1019.0 |
| 20260906034649 | 22 | 257 | 0.0 | 0.0 | 0.00 | 0.00 | 0.00 | 42 | 1019.0 |
| 20260906034421 | 22 | 257 | 0.0 | 0.0 | 0.00 | 0.00 | 0.00 | 40 | 1019.0 |
| 20260906033908 | 22 | 257 | 0.0 | 1.6 | 0.00 | 0.00 | 0.00 | 40 | 1019.0 |
| 20260906033139 | 22 | 257 | 0.0 | 1.6 | 0.00 | 0.00 | 0.00 | 38 | 1018.9 |
| 20260906032640 | 23 | 257 | 0.0 | 1.6 | 0.00 | 0.00 | 0.00 | 40 | 1018.9 |
| 20260906032135 | 23 | 257 | 0.0 | 1.6 | 0.00 | 0.00 | 0.00 | 35 | 1018.7 |
| 20260906031635 | 23 | 257 | 0.0 | 3.2 | 0.00 | 0.00 | 0.00 | 36 | 1018.6 |
| 20260906031135 | 23 | 257 | 1.6 | 3.2 | 0.00 | 0.00 | 0.00 | 36 | 1018.5 |
| 20260906030635 | 23 | 269 | 0.0 | 3.2 | 0.00 | 0.00 | 0.00 | 36 | 1018.4 |
| 20260906030130 | 24 | 4 | 0.0 | 1.6 | 0.00 | 0.00 | 0.00 | 35 | 1018.3 |
| 20260906025631 | 25 | 4 | 0.0 | 1.6 | 0.00 | 0.00 | 0.00 | 34 | 1018.4 |
| 20260906025130 | 25 | 4 | 0.0 | 1.6 | 0.00 | 0.00 | 0.00 | 33 | 1018.3 |
| 20260906024626 | 25 | 1 | 0.0 | 1.6 | 0.00 | 0.00 | 0.00 | 33 | 1018.2 |
| 20260906024126 | 26 | 1 | 0.0 | 1.6 | 0.00 | 0.00 | 0.00 | 32 | 1018.2 |
| 20260906023626 | 26 | 1 | 0.0 | 3.2 | 0.00 | 0.00 | 0.00 | 31 | 1018.2 |
| 20260906023126 | 26 | 311 | 1.6 | 4.8 | 0.00 | 0.00 | 0.00 | 31 | 1018.0 |
| 20260906022626 | 26 | 290 | 0.0 | 4.8 | 0.00 | 0.00 | 0.00 | 31 | 1017.9 |
| 20260906022127 | 27 | 308 | 1.6 | 3.2 | 0.00 | 0.00 | 0.00 | 31 | 1017.8 |
| 20260906021617 | 27 | 315 | 1.6 | 4.8 | 0.00 | 0.00 | 0.00 | 30 | 1017.8 |
| 20260906021112 | 27 | 303 | 1.6 | 4.8 | 0.00 | 0.00 | 0.00 | 30 | 1017.7 |
| 20260906020609 | 28 | 299 | 3.2 | 4.8 | 0.00 | 0.00 | 0.00 | 29 | 1017.8 |
| 20260906020106 | 28 | 304 | 3.2 | 4.8 | 0.00 | 0.00 | 0.00 | 29 | 1017.7 |
| 20260906015609 | 28 | 304 | 3.2 | 4.8 | 0.00 | 0.00 | 0.00 | 29 | 1017.6 |
| 20260906015107 | 28 | 319 | 3.2 | 4.8 | 0.00 | 0.00 | 0.00 | 29 | 1017.5 |
| 20260906014608 | 28 | 298 | 3.2 | 4.8 | 0.00 | 0.00 | 0.00 | 28 | 1017.6 |
| 20260906014107 | 29 | 299 | 3.2 | 6.4 | 0.00 | 0.00 | 0.00 | 28 | 1017.5 |
| 20260906013604 | 29 | 298 | 3.2 | 6.4 | 0.00 | 0.00 | 0.00 | 27 | 1017.5 |
| 20260906013058 | 30 | 305 | 0.0 | 3.2 | 0.00 | 0.00 | 0.00 | 28 | 1017.5 |
| 20260906012547 | 30 | 313 | 1.6 | 4.8 | 0.00 | 0.00 | 0.00 | 26 | 1017.5 |
| 20260906012048 | 30 | 306 | 1.6 | 6.4 | 0.00 | 0.00 | 0.00 | 26 | 1017.5 |
| 20260906011548 | 31 | 295 | 3.2 | 8.0 | 0.00 | 0.00 | 0.00 | 25 | 1017.4 |
| 20260906011048 | 31 | 304 | 3.2 | 8.0 | 0.00 | 0.00 | 0.00 | 25 | 1017.4 |
| 20260906010548 | 31 | 289 | 3.2 | 8.0 | 0.00 | 0.00 | 0.00 | 25 | 1017.5 |
| 20260906010048 | 31 | 300 | 3.2 | 9.7 | 0.00 | 0.00 | 0.00 | 25 | 1017.5 |
| 20260906005548 | 31 | 292 | 6.4 | 11.3 | 0.00 | 0.00 | 0.00 | 24 | 1017.5 |
| 20260906005048 | 31 | 299 | 3.2 | 11.3 | 0.00 | 0.00 | 0.00 | 24 | 1017.5 |
| 20260906004544 | 31 | 5 | 6.4 | 9.7 | 0.00 | 0.00 | 0.00 | 24 | 1017.6 |
| 20260906004529 | 31 | 1 | 4.8 | 11.3 | 0.00 | 0.00 | 0.00 | 24 | 1017.6 |
| 20260906003543 | 31 | 292 | 6.4 | 11.3 | 0.00 | 0.00 | 0.00 | 24 | 1017.6 |
| 20260906003044 | 32 | 328 | 4.8 | 12.9 | 0.00 | 0.00 | 0.00 | 25 | 1017.6 |
| 20260906002801 | 31 | 318 | 6.4 | 12.9 | 0.00 | 0.00 | 0.00 | 25 | 1017.6 |
| 20260906002044 | 31 | 296 | 6.4 | 12.9 | 0.00 | 0.00 | 0.00 | 24 | 1017.6 |
| 20260906001545 | 31 | 343 | 6.4 | 12.9 | 0.00 | 0.00 | 0.00 | 25 | 1017.7 |
| 20260906001040 | 32 | 275 | 6.4 | 17.7 | 0.00 | 0.00 | 0.00 | 24 | 1017.7 |
| 20260906000535 | 31 | 283 | 9.7 | 19.3 | 0.00 | 0.00 | 0.00 | 24 | 1017.6 |
| 20260906000034 | 31 | 314 | 9.7 | 19.3 | 0.00 | 0.00 | 0.00 | 24 | 1017.5 |
| 20260905235535 | 32 | 314 | 8.0 | 16.1 | 0.00 | 0.00 | 0.00 | 24 | 1017.6 |
| 20260905235253 | 32 | 300 | 9.7 | 16.1 | 0.00 | 0.00 | 0.00 | 24 | 1017.6 |
| 20260905234535 | 32 | 315 | 8.0 | 14.5 | 0.00 | 0.00 | 0.00 | 24 | 1017.5 |
| 20260905234036 | 32 | 324 | 9.7 | 14.5 | 0.00 | 0.00 | 0.00 | 23 | 1017.5 |
| 20260905233531 | 32 | 294 | 9.7 | 14.5 | 0.00 | 0.00 | 0.00 | 23 | 1017.5 |
| 20260905233031 | 32 | 285 | 6.4 | 9.7 | 0.00 | 0.00 | 0.00 | 23 | 1017.5 |